| time (UTC) | temp F | wind direction | speed MPH | gust MPH | rain 1hr in | rain 24hr in | rain mn in | humidity % | barometer mb |
| 20260502164019 | 58 | 90 | 1.0 | 2.0 | 0.00 | 0.00 | 0.00 | 82 | 1014.9 |
| 20260502163017 | 58 | 45 | 1.0 | 2.0 | 0.00 | 0.00 | 0.00 | 82 | 1015.0 |
| 20260502162036 | 58 | 23 | 1.0 | 2.0 | 0.00 | 0.00 | 0.00 | 81 | 1015.0 |
| 20260502161058 | 57 | 23 | 1.0 | 2.0 | 0.00 | 0.00 | 0.00 | 79 | 1015.0 |
| 20260502152016 | 56 | 0 | 1.0 | 2.0 | 0.00 | 0.00 | 0.00 | 84 | 1014.8 |
| 20260502151016 | 56 | 0.0 | 1.0 | 0.00 | 0.00 | 0.00 | 83 | 1014.6 | |
| 20260502123016 | 55 | 0.0 | 2.0 | 0.00 | 0.00 | 0.00 | 84 | 1013.6 | |
| 20260502122016 | 55 | 0.0 | 0.0 | 0.00 | 0.00 | 0.00 | 83 | 1013.6 | |
| 20260502121015 | 56 | 0.0 | 1.0 | 0.00 | 0.00 | 0.00 | 82 | 1013.7 | |
| 20260502115016 | 57 | 0.0 | 1.0 | 0.00 | 0.00 | 0.00 | 78 | 1014.2 | |
| 20260502114015 | 58 | 203 | 1.0 | 3.0 | 0.00 | 0.00 | 0.00 | 78 | 1014.1 |
| 20260502113015 | 57 | 203 | 2.0 | 3.0 | 0.00 | 0.00 | 0.00 | 79 | 1013.8 |
| 20260502112017 | 57 | 0.0 | 0.0 | 0.00 | 0.00 | 0.00 | 79 | 1013.7 | |
| 20260502111015 | 57 | 0.0 | 1.0 | 0.00 | 0.00 | 0.00 | 78 | 1013.6 | |
| 20260502110016 | 57 | 0.0 | 1.0 | 0.00 | 0.00 | 0.00 | 77 | 1013.8 | |
| 20260502105016 | 58 | 0.0 | 0.0 | 0.00 | 0.00 | 0.00 | 77 | 1014.1 | |
| 20260502104016 | 58 | 0.0 | 0.0 | 0.00 | 0.00 | 0.00 | 75 | 1014.5 | |
| 20260502103016 | 59 | 180 | 1.0 | 4.0 | 0.00 | 0.00 | 0.00 | 74 | 1014.5 |
| 20260502102015 | 59 | 270 | 1.0 | 6.0 | 0.00 | 0.00 | 0.00 | 74 | 1014.4 |
| 20260502101018 | 59 | 225 | 2.0 | 4.0 | 0.00 | 0.00 | 0.00 | 74 | 1014.4 |
| 20260502091017 | 59 | 248 | 3.0 | 12.0 | 0.00 | 0.00 | 0.00 | 72 | 1014.9 |
| 20260502071017 | 62 | 248 | 1.0 | 4.0 | 0.00 | 0.00 | 0.00 | 64 | 1014.6 |
| 20260502070016 | 62 | 248 | 1.0 | 3.0 | 0.00 | 0.00 | 0.00 | 64 | 1014.3 |
| 20260502065017 | 64 | 270 | 2.0 | 5.0 | 0.00 | 0.00 | 0.00 | 62 | 1014.4 |
| 20260502064017 | 64 | 293 | 2.0 | 5.0 | 0.00 | 0.00 | 0.00 | 61 | 1014.7 |
| 20260502063017 | 64 | 270 | 1.0 | 3.0 | 0.00 | 0.00 | 0.00 | 61 | 1014.7 |
| 20260502062017 | 64 | 270 | 3.0 | 11.0 | 0.00 | 0.00 | 0.00 | 61 | 1014.6 |
| 20260502061016 | 64 | 270 | 1.0 | 5.0 | 0.00 | 0.00 | 0.00 | 62 | 1014.5 |
| 20260502060016 | 64 | 248 | 3.0 | 10.0 | 0.00 | 0.00 | 0.00 | 60 | 1014.3 |
| 20260502055017 | 64 | 248 | 3.0 | 6.0 | 0.00 | 0.00 | 0.00 | 61 | 1014.0 |
| 20260502054017 | 65 | 270 | 3.0 | 10.0 | 0.00 | 0.00 | 0.00 | 60 | 1014.0 |
| 20260502053017 | 65 | 270 | 3.0 | 7.0 | 0.00 | 0.00 | 0.00 | 59 | 1014.1 |
| 20260502052016 | 65 | 225 | 2.0 | 7.0 | 0.00 | 0.00 | 0.00 | 60 | 1014.3 |
| 20260502051017 | 65 | 270 | 2.0 | 10.0 | 0.00 | 0.00 | 0.00 | 60 | 1014.0 |
| 20260502050037 | 65 | 293 | 2.0 | 4.0 | 0.00 | 0.00 | 0.00 | 60 | 1014.0 |
| 20260502045037 | 66 | 293 | 1.0 | 3.0 | 0.00 | 0.00 | 0.00 | 60 | 1013.9 |
| 20260502044016 | 66 | 23 | 2.0 | 5.0 | 0.00 | 0.00 | 0.00 | 58 | 1013.8 |
| 20260502043017 | 66 | 248 | 4.0 | 11.0 | 0.00 | 0.00 | 0.00 | 58 | 1013.5 |
| 20260502042016 | 66 | 248 | 4.0 | 11.0 | 0.00 | 0.00 | 0.00 | 57 | 1013.1 |
| 20260502041017 | 66 | 248 | 4.0 | 19.0 | 0.00 | 0.00 | 0.00 | 58 | 1013.3 |
| 20260502040037 | 66 | 270 | 3.0 | 7.0 | 0.00 | 0.00 | 0.00 | 59 | 1013.2 |
| 20260502035016 | 67 | 293 | 3.0 | 7.0 | 0.00 | 0.00 | 0.00 | 59 | 1013.5 |
| 20260502034017 | 67 | 270 | 3.0 | 8.0 | 0.00 | 0.00 | 0.00 | 59 | 1013.3 |
| 20260502033016 | 67 | 293 | 1.0 | 3.0 | 0.00 | 0.00 | 0.00 | 59 | 1013.3 |
| 20260502032016 | 68 | 158 | 3.0 | 9.0 | 0.00 | 0.00 | 0.00 | 57 | 1013.0 |
| 20260502031021 | 68 | 225 | 4.0 | 13.0 | 0.00 | 0.00 | 0.00 | 55 | 1012.9 |
| 20260502030036 | 68 | 225 | 3.0 | 12.0 | 0.00 | 0.00 | 0.00 | 55 | 1012.5 |
| 20260502025016 | 68 | 248 | 7.0 | 17.0 | 0.00 | 0.00 | 0.00 | 55 | 1012.2 |
| 20260502024016 | 69 | 270 | 5.0 | 14.0 | 0.00 | 0.00 | 0.00 | 55 | 1011.9 |
| 20260502023016 | 69 | 270 | 4.0 | 14.0 | 0.00 | 0.00 | 0.00 | 55 | 1011.9 |
| 20260502022016 | 69 | 293 | 4.0 | 13.0 | 0.00 | 0.00 | 0.00 | 54 | 1011.7 |
| 20260502021016 | 70 | 270 | 4.0 | 15.0 | 0.00 | 0.00 | 0.00 | 54 | 1011.8 |
| 20260502020016 | 70 | 270 | 4.0 | 12.0 | 0.00 | 0.00 | 0.00 | 53 | 1011.7 |
| 20260502015016 | 72 | 270 | 5.0 | 15.0 | 0.00 | 0.00 | 0.00 | 51 | 1011.7 |
| 20260502014016 | 73 | 248 | 5.0 | 12.0 | 0.00 | 0.00 | 0.00 | 49 | 1011.7 |
| 20260502013056 | 73 | 270 | 3.0 | 10.0 | 0.00 | 0.00 | 0.00 | 48 | 1011.5 |
| 20260502012015 | 74 | 270 | 4.0 | 12.0 | 0.00 | 0.00 | 0.00 | 47 | 1011.6 |
| 20260502011056 | 75 | 293 | 3.0 | 9.0 | 0.00 | 0.00 | 0.00 | 49 | 1011.6 |
| 20260502010015 | 77 | 270 | 1.0 | 5.0 | 0.00 | 0.00 | 0.00 | 47 | 1011.6 |
| 20260502005015 | 77 | 23 | 1.0 | 6.0 | 0.00 | 0.00 | 0.00 | 42 | 1011.7 |
| 20260502004016 | 77 | 45 | 1.0 | 3.0 | 0.00 | 0.00 | 0.00 | 43 | 1011.7 |
| 20260502003016 | 78 | 315 | 1.0 | 2.0 | 0.00 | 0.00 | 0.00 | 44 | 1011.8 |
| 20260502002019 | 78 | 270 | 1.0 | 2.0 | 0.00 | 0.00 | 0.00 | 39 | 1011.8 |
| 20260502001016 | 79 | 45 | 1.0 | 4.0 | 0.00 | 0.00 | 0.00 | 40 | 1011.8 |
| 20260502000017 | 79 | 45 | 2.0 | 4.0 | 0.00 | 0.00 | 0.00 | 41 | 1011.8 |
| 20260501235016 | 78 | 45 | 1.0 | 2.0 | 0.00 | 0.00 | 0.00 | 36 | 1011.9 |
| 20260501234015 | 78 | 0 | 1.0 | 2.0 | 0.00 | 0.00 | 0.00 | 40 | 1012.2 |
| 20260501233016 | 78 | 45 | 2.0 | 3.0 | 0.00 | 0.00 | 0.00 | 39 | 1012.2 |
| 20260501232016 | 77 | 45 | 1.0 | 4.0 | 0.00 | 0.00 | 0.00 | 42 | 1012.5 |
| 20260501231016 | 78 | 23 | 1.0 | 3.0 | 0.00 | 0.00 | 0.00 | 39 | 1012.6 |
| 20260501230016 | 78 | 338 | 2.0 | 5.0 | 0.00 | 0.00 | 0.00 | 35 | 1012.8 |
| 20260501225056 | 79 | 293 | 1.0 | 4.0 | 0.00 | 0.00 | 0.00 | 32 | 1013.0 |
| 20260501224015 | 78 | 23 | 1.0 | 3.0 | 0.00 | 0.00 | 0.00 | 35 | 1013.1 |
| 20260501223016 | 78 | 270 | 1.0 | 3.0 | 0.00 | 0.00 | 0.00 | 33 | 1013.2 |
| 20260501222017 | 78 | 315 | 1.0 | 3.0 | 0.00 | 0.00 | 0.00 | 37 | 1013.4 |
| 20260501221017 | 78 | 45 | 2.0 | 10.0 | 0.00 | 0.00 | 0.00 | 33 | 1013.5 |
| 20260501220018 | 77 | 45 | 1.0 | 4.0 | 0.00 | 0.00 | 0.00 | 36 | 1013.8 |
| 20260501215018 | 77 | 225 | 2.0 | 4.0 | 0.00 | 0.00 | 0.00 | 37 | 1013.9 |
| 20260501214017 | 77 | 270 | 2.0 | 5.0 | 0.00 | 0.00 | 0.00 | 34 | 1013.9 |
| 20260501213017 | 76 | 338 | 1.0 | 3.0 | 0.00 | 0.00 | 0.00 | 35 | 1013.9 |
| 20260501212017 | 75 | 270 | 1.0 | 3.0 | 0.00 | 0.00 | 0.00 | 38 | 1014.2 |
| 20260501211017 | 75 | 0 | 2.0 | 4.0 | 0.00 | 0.00 | 0.00 | 36 | 1014.2 |
| 20260501210017 | 75 | 315 | 2.0 | 4.0 | 0.00 | 0.00 | 0.00 | 45 | 1014.4 |
| 20260501205017 | 74 | 270 | 1.0 | 3.0 | 0.00 | 0.00 | 0.00 | 43 | 1014.5 |
| 20260501204018 | 74 | 0.0 | 2.0 | 0.00 | 0.00 | 0.00 | 42 | 1014.5 | |
| 20260501203017 | 73 | 270 | 2.0 | 4.0 | 0.00 | 0.00 | 0.00 | 42 | 1014.8 |
| 20260501202017 | 73 | 68 | 1.0 | 3.0 | 0.00 | 0.00 | 0.00 | 51 | 1014.9 |
| 20260501201017 | 72 | 315 | 2.0 | 5.0 | 0.00 | 0.00 | 0.00 | 43 | 1015.0 |
| 20260501200017 | 71 | 338 | 2.0 | 4.0 | 0.00 | 0.00 | 0.00 | 43 | 1015.1 |
| 20260501195037 | 71 | 0 | 1.0 | 3.0 | 0.00 | 0.00 | 0.00 | 44 | 1015.3 |
| 20260501194057 | 71 | 45 | 1.0 | 3.0 | 0.00 | 0.00 | 0.00 | 51 | 1015.3 |
| 20260501193012 | 71 | 0 | 1.0 | 3.0 | 0.00 | 0.00 | 0.00 | 48 | 1015.4 |
| 20260501192017 | 69 | 23 | 1.0 | 3.0 | 0.00 | 0.00 | 0.00 | 45 | 1015.5 |
| 20260501191017 | 68 | 248 | 1.0 | 3.0 | 0.00 | 0.00 | 0.00 | 47 | 1015.6 |
| 20260501190016 | 68 | 0 | 1.0 | 4.0 | 0.00 | 0.00 | 0.00 | 49 | 1015.7 |
| 20260501185017 | 68 | 23 | 1.0 | 3.0 | 0.00 | 0.00 | 0.00 | 46 | 1015.8 |
| 20260501184016 | 66 | 23 | 1.0 | 5.0 | 0.00 | 0.00 | 0.00 | 49 | 1016.0 |
| 20260501183017 | 66 | 68 | 2.0 | 4.0 | 0.00 | 0.00 | 0.00 | 48 | 1016.1 |
| 20260501182017 | 65 | 45 | 1.0 | 2.0 | 0.00 | 0.00 | 0.00 | 54 | 1016.2 |
| 20260501181158 | 64 | 0 | 1.0 | 3.0 | 0.00 | 0.00 | 0.00 | 53 | 1016.2 |
| 20260501180017 | 64 | 45 | 2.0 | 4.0 | 0.00 | 0.00 | 0.00 | 52 | 1016.3 |
| 20260501175017 | 64 | 45 | 1.0 | 3.0 | 0.00 | 0.00 | 0.00 | 57 | 1016.4 |